Location: Godiavel Galaoual
(15.2485°N, 12.6604°W)
Time: 11:27:10
(UTC+00:00)

Explorer 7 - All Passes

Search period start: 14 June 2021 00:00
Search period end: 24 June 2021 00:00
Orbit: 484 x 677 km, 50.3° (Epoch: 13 June)

Date Brightness Start Highest point End Pass type
(mag) Time Alt. Az. Time Alt. Az. Time Alt. Az.
14 Jun - 07:56:27 10° NW 08:00:26 87° NE 08:04:13 10° SE daylight
14 Jun - 20:07:23 10° SE 20:09:07 12° SE 20:10:52 10° ESE visible
14 Jun - 21:44:33 10° SW 21:49:22 61° NW 21:54:11 10° NNE visible
15 Jun - 06:22:21 10° NNE 06:24:10 13° NE 06:25:55 10° ENE daylight
15 Jun - 08:00:58 10° NW 08:04:43 40° SW 08:08:17 10° SSE daylight
15 Jun - 20:09:35 10° S 20:13:21 23° SE 20:17:08 10° ENE visible
15 Jun - 21:49:21 10° WSW 21:53:44 33° NW 21:58:07 10° NNE visible
16 Jun - 06:25:21 10° N 06:28:40 24° NE 06:31:51 10° ESE daylight
16 Jun - 08:06:04 10° WNW 08:08:56 19° SW 08:11:42 10° S daylight
16 Jun - 20:13:02 10° SSW 20:17:35 42° SE 20:22:11 10° NE visible
16 Jun - 21:54:45 10° W 21:58:11 19° NW 22:01:38 10° N visible
17 Jun - 06:29:07 10° NNW 06:33:04 48° NE 06:36:50 10° SE daylight
17 Jun - 20:17:02 10° SW 20:21:51 83° SE 20:26:45 10° NE visible
17 Jun - 22:01:36 10° NW 22:02:44 11° NW 22:03:52 10° NNW visible
18 Jun - 06:33:18 10° NW 06:37:24 77° SW 06:41:17 10° SE daylight
18 Jun - 18:43:34 10° SSE 18:45:56 14° SE 18:48:20 10° E daylight
18 Jun - 20:21:30 10° SW 20:26:10 52° NW 20:30:57 10° NNE visible
19 Jun - 04:58:38 10° N 05:01:10 15° NE 05:03:36 10° E visible
19 Jun - 06:37:56 10° WNW 06:41:40 34° SW 06:45:13 10° SSE daylight
19 Jun - 18:46:13 10° S 18:50:08 26° SE 18:54:09 10° ENE daylight
19 Jun - 20:26:25 10° WSW 20:30:34 29° NW 20:34:47 10° NNE visible
20 Jun - 05:01:57 10° NNW 05:05:39 29° NE 05:09:09 10° ESE visible
20 Jun - 06:43:13 10° W 06:45:52 17° SW 06:48:25 10° SSW daylight
20 Jun - 18:49:48 10° SSW 18:54:22 49° SE 18:59:04 10° NE daylight
20 Jun - 20:31:59 10° W 20:35:02 17° NW 20:38:08 10° N visible
21 Jun - 05:05:51 10° NNW 05:10:02 59° NE 05:13:58 10° SE visible
21 Jun - 18:53:55 10° SW 18:58:38 85° NW 19:03:31 10° NE daylight
22 Jun - 03:33:19 10° NE 03:33:33 10° NE 03:33:48 10° NE visible
22 Jun - 05:10:08 10° NW 05:14:21 64° SW 05:18:17 10° SSE visible
22 Jun - 17:19:58 10° SSE 17:22:44 16° ESE 17:25:32 10° E daylight
22 Jun - 18:58:28 10° WSW 19:02:59 44° NW 19:07:38 10° NNE daylight
23 Jun - 03:35:01 10° N 03:38:07 19° NE 03:41:05 10° E visible
23 Jun - 05:14:52 10° WNW 05:18:35 30° SW 05:22:05 10° S visible
23 Jun - 17:22:54 10° S 17:26:55 29° SE 17:31:05 10° ENE daylight
23 Jun - 19:03:31 10° W 19:07:24 25° NW 19:11:23 10° N daylight
